Location: Cerezo de Arriba
(41.2389°N, 3.5585°W)
Time: 03:46:17
(UTC+00:00)

USA 186 - Pass Details

Date: 19 May 2025
Orbit: 338 x 359 km, 97.0° (Epoch: 19 May)

Event Time Altitude Azimuth Distance (km) Brightness Sun altitude
Exits shadow 20:32:41 - 188° (S) 1,766 4.6 -10.7°
Reaches altitude 10° 20:33:52 10° 196° (SSW) 1,278 4.0 -10.8°
Maximum altitude 20:36:21 32° 262° (W) 613 3.0 -11.2°
Drops below altitude 10° 20:38:52 10° 329° (NNW) 1,292 5.5 -11.6°
Sets 20:40:54 0° 339° (NNW) 2,140 6.5 -11.9°
